www.pogodaiklimat.ru

Погода и климат >> Архив погоды >> ЦАР >> Банги


ПОГОДА в Банги

  • Прогноз погоды в Банги
  • Монитор погоды в Банги

АРХИВ ПОГОДЫ в Банги

Время (UTC), дата Ветер
(напр.,м/с)
 
Видим.   Явления Облачность Т
(С)
Тd
(С)
f
(%)
Тe
(С)
Тes
(С)
Комфортность P
(гПа)
Po
(гПа)
Тmin
(С)
Tmax
(С)
R
(мм)
R24
(мм)
S
(см)
03 17.01 З 1 6000 м 9/0
[Ci]
+18.0 +13.7 76 +19 +19 1010.2 969.6
06 17.01 штиль 0 2000 м дымка 6/0
[Ci sp]
+16.5 +13.0 80 +16 +18 1012.6 971.3 +16.5
09 17.01 С 1 6000 м мгла 1/0
[Ci sp]
+27.0 +9.3 33 +27 +44 жарко 1013.4 972.5
12 17.01 СЗ 2 8000 м мгла 3/0
[Ci sp]
+32.4 +4.8 18 +30 +46 жарко 1009.9 969.2
15 17.01 ЮЗ 3 6000 м мгла 4/0
[Ci sp]
+32.5 +4.7 17 +30 +33 жарко 1007.0 966.4
18 17.01 ЮВ 2 6000 м мгла 3/0
[Ci sp]
+26.0 +12.5 43 +28 +28 жарко 1009.0 967.8 +34.5
21 17.01 штиль 0 6000 м ясно +20.8 +14.1 65 +23 +23 комфорт 1010.7 969.7
00 18.01 штиль 0 6000 м ясно +18.5 +14.8 79 +19 +19 1009.9 969.2
03 18.01 С 2 6000 м ясно +17.2 +13.4 78 +18 +18 1009.9 969.1
06 18.01 С 1 3000 м дымка ясно +17.0 +13.0 77 +18 +20 1012.7 971.3 +16.0
09 18.01 С 1 6000 м ясно +26.6 +16.5 54 +30 +48 душно 1012.8 971.7
12 18.01 ЮЗ 2 8000 м ясно +33.0 +18.8 43 +38 +55 опасность
солнечного
удара
1009.1 968.5
15 18.01 ЮЗ 3 7000 м мгла ясно +34.0 +18.9 41 +39 +42 очень
душно
1006.6 966.0
18 18.01 ЮВ 1 4000 м дым ясно +27.5 +14.8 46 +30 +30 жарко 1008.5 967.4 +34.8
21 18.01 ЮВ 1 6000 м ясно +23.5 +14.5 57 +26 +26 жарко 1010.2 969.4
00 19.01 СЗ 1 6000 м ясно +20.0 +15.9 77 +24 +24 комфорт 1010.3 969.7
03 19.01 штиль 0 6000 м ясно +18.0 +17.1 94 +18 +18 1010.1 969.4
06 19.01 штиль 0 3000 м дымка 1/0
[Ci sp]
+18.0 +17.0 94 +18 +20 1012.2 971.0 +17.6
09 19.01 З 2 8000 м ясно +27.4 +21.2 69 +35 +50 очень
душно
1012.2 971.4
12 19.01 С 3 15 км ясно +33.0 +22.3 53 +42 +56 опасность
перегрева
1008.9 968.3
18 19.01 ЮВ 2 4000 м мгла ясно +28.5 +21.7 67 +37 +37 очень
душно
1008.6 967.7 +34.6
00 20.01 штиль 0 6000 м ясно +21.6 +20.3 92 +27 +27 душно 1010.5 970.0
06 20.01 З 1 4000 м ясно +19.6 +18.5 93 +23 +25 комфорт 1012.0 971.0 +19.3
12 20.01 15 км 4/4 600 м
[Cu med, cong]
+33.7 +20.2 45 1008.7 968.3
18 20.01 ЮВ 1 6000 м 3/1 600 м
[Sc diur, vesp Ac trans Ci sp]
+30.0 +22.1 63 +39 +39 очень
душно
1008.4 967.6 +35.5
00 21.01 С 2 6000 м ясно +24.5 +21.9 85 +31 +31 очень
душно
1009.7 969.4
06 21.01 штиль 0 3000 м дымка 9/1 1200 м
[Cb cap Ac cuf Ci sp]
+23.3 +21.8 91 +32 +33 очень
душно
1011.7 971.1 +22.7
12 21.01 ЮЗ 4 10 км 9/0
[Ci sp]
+31.0 +21.3 56 +39 +48 очень
душно
1010.2 969.8
18 21.01 ЮВ 3 8000 м 9/0
[Ci sp]
+27.0 +23.5 81 +37 +37 очень
душно
1011.1 970.2 +33.0
00 22.01 штиль 0 8000 м 6/0
[Ac trans]
+22.5 +21.5 94 +30 +30 очень
душно
1009.7 969.2
06 22.01 З 1 3000 м дымка 6/0
[Ac trans]
+22.3 +21.5 95 +29 +31 очень
душно
1011.1 970.2 +22.0
12 22.01 ЮЗ 2 15 км ясно +33.5 +21.2 49 +41 +58 опасность
перегрева
1007.6 967.3
18 22.01 Ю 2 10 км 3/0
[Ci sp]
+30.3 +24.5 71 +43 +43 опасность
перегрева
1007.1 966.6 +36.4
00 23.01 штиль 0 8000 м ясно +25.5 +23.8 90 +35 +35 очень
душно
1008.5 968.3
06 23.01 штиль 0 3000 м дымка 4/0
[Ac trans]
+22.9 +21.6 92 +31 +32 очень
душно
1011.3 970.7 +23.0
12 23.01 ЮЗ 4 10 км 3/3 1000 м
[Cu med, cong]
+34.2 +21.2 47 +42 +50 опасность
перегрева
1007.4 967.3
18 23.01 ЮВ 2 8000 м 1/1 1200 м
[Cb calv]
+30.6 +22.1 61 +40 +40 очень
душно
1006.9 966.5 +35.2

 

Местоположение метеостанции Банги (ЦАР): широта 4.40 долгота 18.52 высота над уровнем моря 366 м.

В архиве по умолчанию представлена погода в Банги за последнюю неделю. Архивные данные за месяц целиком и за предыдущие месяцы, начиная с января 2011 года, Вы можете получить, выбрав интересующий диапазон дат из раскрывающегося списка и нажав кнопку "Ввод!".


*Определитесь, кто Вы:
робот инопланетянин человек

Внимание! Время в таблицах - всемирное. Для получения местного времени необходимо прибавить поправку, которая равна 1 ч.

Смотрите также архив погоды в соседних городах и на ближайших метеорологических станциях:

Погода в Гемене (Демократическая Республика Конго) (187 км)
Погода в Босангоа (ЦАР) (261 км)
Погода в Бамбари (ЦАР) (286 км)
Погода в Мобае (ЦАР) (295 км)
Погода в Берберати (ЦАР) (302 км)
Погода в Импфондо (Конго) (313 км)
Погода в Буаре (ЦАР) (365 км)
Погода в Весо (Конго) (414 км)
Погода в Бриа (ЦАР) (450 км)
Погода в Сархе (Чад) (529 км)

Пояснения к столбцам:

Ветер - указаны скорость ветра в м/с - средняя за 10 мин, порывы в срок и между сроками (в фигурных скобках) и направление, откуда дует ветер: С - северный, СВ - северо-восточный, В - восточный, ЮВ - юго-восточный, Ю - южный, ЮЗ - юго-западный, З - западный, СЗ - северо-западный.
Видимость - горизонтальная дальность видимости в метрах или километрах. При видимости от 1 до 10 км при отсутствии осадков обычно наблюдается дымка, при ухудшении видимости до 1 км и менее - туман. В сухую погоду видимость может ухудшаться дымом, пылью или мглою.
Явления - указаны атмосферные явления, наблюдавшиеся в срок или в последний час перед сроком; фигурными скобками обозначены явления, наблюдавшиеся между сроками (за 1-3 часа до срока); квадратными скобками обозначены град или гололедные отложения с указанием их диаметра в мм.
Облачность - указаны через наклонную черту общая и нижняя облачность в баллах и высота нижней границы облаков в метрах; квадратными скобками обозначены формы облаков: Ci - перистые, Cs - перисто-слоистые, Cc - перисто-кучевые, Ac - высококучевые, As - высокослоистые, Sc - слоисто-кучевые, Ns - слоисто-дождевые, Cu - кучевые, Cb - кучево-дождевые. Подробнее классификацию облаков см. в Атласе облаков (PDF).
T - Температура воздуха - температура, измеренная на высоте 2 м над землей.
Td - Температура точки росы - температура, при понижении до которой содержащийся в воздухе водяной пар достигнет насыщения.
f - Относительная влажность воздуха - влажноcть воздуха, измеренная на высоте 2 м над землей.
Te - Эффективная температура - температура, которую ощущает одетый по сезону человек в тени. Характеристика душности погоды. При расчете учитывается влияние влажности воздуха и скорости ветра на теплоощущения человека.
Tes - Эффективная температура на солнце - температура, которую ощущает человек, с поправкой на солнечный нагрев. Характеристика знойности погоды. Зависит от высоты солнца над горизонтом, облачности и скорости ветра. Ночью, в пасмурную погоду, а также при ветре 12 м/с и более поправка равна нулю.
P - Атмосферное давление - приведенное к уровню моря атмосферное давление.
Po - Атмосферное давление - измеренное на уровне метеостанции атмосферное давление.
Tmin - Минимальная температура - минимум температуры воздуха на высоте 2 м над землей.
Tmax - Максимальная температура - максимум температуры воздуха на высоте 2 м над землей.
R - Количество осадков - Количество выпавших осадков за период времени, мм. При наведении курсора мыши на число - период времени, за который выпало указанное количество осадков.
R24 - Количество осадков - Количество выпавших осадков за 24 часа, мм.
S - Снежный покров - Высота снежного покрова, см. При наведении курсора мыши на число - состояние снежного покрова и степень покрытия местности в баллах.